Year,Month,Day,Hour,Minute,Value (Times are PST for windspeed in km/hr)
2013,02,24,00,00,9.30
2013,02,24,00,01,7.20
2013,02,24,00,02,7.80
2013,02,24,00,03,12.80
2013,02,24,00,04,12.60
2013,02,24,00,05,13.90
2013,02,24,00,06,11.30
2013,02,24,00,07,11.00
2013,02,24,00,08,11.00
2013,02,24,00,09,14.30
2013,02,24,00,10,11.60
2013,02,24,00,11,11.20
2013,02,24,00,12,10.60
2013,02,24,00,13,8.20
2013,02,24,00,14,5.80
2013,02,24,00,15,5.60
2013,02,24,00,16,11.80
2013,02,24,00,17,7.20
2013,02,24,00,18,9.90
2013,02,24,00,19,11.10
2013,02,24,00,20,12.10
2013,02,24,00,21,9.00
2013,02,24,00,22,7.20
2013,02,24,00,23,15.80
2013,02,24,00,24,12.30
2013,02,24,00,25,6.40
2013,02,24,00,26,8.90
2013,02,24,00,27,12.00
2013,02,24,00,28,10.20
2013,02,24,00,29,11.90
2013,02,24,00,30,5.80
2013,02,24,00,31,12.30
2013,02,24,00,32,14.90
2013,02,24,00,33,7.10
2013,02,24,00,34,8.70
2013,02,24,00,35,9.50
2013,02,24,00,36,8.20
2013,02,24,00,37,17.20
2013,02,24,00,38,7.20
2013,02,24,00,39,9.00
2013,02,24,00,40,7.70
2013,02,24,00,41,12.50
2013,02,24,00,42,6.60
2013,02,24,00,43,10.30
2013,02,24,00,44,9.30
2013,02,24,00,45,12.90
2013,02,24,00,46,16.80
2013,02,24,00,47,17.10
2013,02,24,00,48,6.60
2013,02,24,00,49,7.50
2013,02,24,00,50,11.00
2013,02,24,00,51,10.20
2013,02,24,00,52,13.00
2013,02,24,00,53,7.10
2013,02,24,00,54,7.20
2013,02,24,00,55,12.80
2013,02,24,00,56,12.90
2013,02,24,00,57,11.10
2013,02,24,00,58,9.30
2013,02,24,00,59,9.00
2013,02,24,01,00,9.70
2013,02,24,01,01,15.70
2013,02,24,01,02,16.10
2013,02,24,01,03,15.30
2013,02,24,01,04,12.60
2013,02,24,01,05,18.70
2013,02,24,01,06,7.70
2013,02,24,01,07,15.70
2013,02,24,01,08,14.80
2013,02,24,01,09,13.90
2013,02,24,01,10,10.30
2013,02,24,01,11,14.10
2013,02,24,01,12,19.90
2013,02,24,01,13,14.50
2013,02,24,01,14,13.20
2013,02,24,01,15,14.30
2013,02,24,01,16,12.50
2013,02,24,01,17,15.30
2013,02,24,01,18,13.40
2013,02,24,01,19,13.20
2013,02,24,01,20,11.40
2013,02,24,01,21,16.30
2013,02,24,01,22,11.70
2013,02,24,01,23,12.00
2013,02,24,01,24,11.80
2013,02,24,01,25,8.10
2013,02,24,01,26,9.00
2013,02,24,01,27,7.30
2013,02,24,01,28,5.70
2013,02,24,01,29,6.50
2013,02,24,01,30,5.50
2013,02,24,01,31,11.30
2013,02,24,01,32,12.50
2013,02,24,01,33,5.10
2013,02,24,01,34,10.10
2013,02,24,01,35,12.70
2013,02,24,01,36,7.10
2013,02,24,01,37,4.10
2013,02,24,01,38,9.70
2013,02,24,01,39,2.00
2013,02,24,01,40,7.40
2013,02,24,01,41,8.40
2013,02,24,01,42,7.90
2013,02,24,01,43,10.90
2013,02,24,01,44,7.70
2013,02,24,01,45,0.60
2013,02,24,01,46,4.90
2013,02,24,01,47,10.60
2013,02,24,01,48,3.90
2013,02,24,01,49,8.60
2013,02,24,01,50,7.60
2013,02,24,01,51,6.00
2013,02,24,01,52,4.30
2013,02,24,01,53,7.50
2013,02,24,01,54,6.30
2013,02,24,01,55,11.20
2013,02,24,01,56,8.90
2013,02,24,01,57,8.50
2013,02,24,01,58,8.70
2013,02,24,01,59,9.70
2013,02,24,02,00,14.30
2013,02,24,02,01,8.40
2013,02,24,02,02,13.00
2013,02,24,02,03,3.20
2013,02,24,02,04,1.60
2013,02,24,02,05,3.00
2013,02,24,02,06,3.40
2013,02,24,02,07,2.80
2013,02,24,02,08,7.20
2013,02,24,02,09,3.90
2013,02,24,02,10,10.90
2013,02,24,02,11,4.10
2013,02,24,02,12,4.70
2013,02,24,02,13,10.20
2013,02,24,02,14,13.40
2013,02,24,02,15,7.70
2013,02,24,02,16,4.70
2013,02,24,02,17,4.30
2013,02,24,02,18,2.30
2013,02,24,02,19,2.80
2013,02,24,02,20,6.00
2013,02,24,02,21,5.50
2013,02,24,02,22,4.80
2013,02,24,02,23,3.70
2013,02,24,02,24,2.70
2013,02,24,02,25,1.60
2013,02,24,02,26,1.50
2013,02,24,02,27,2.30
2013,02,24,02,28,5.50
2013,02,24,02,29,6.30
2013,02,24,02,30,4.90
2013,02,24,02,31,2.60
2013,02,24,02,32,5.00
2013,02,24,02,33,4.40
2013,02,24,02,34,1.10
2013,02,24,02,35,0.50
2013,02,24,02,36,2.10
2013,02,24,02,37,3.50
2013,02,24,02,38,3.90
2013,02,24,02,39,0.50
2013,02,24,02,40,0.70
2013,02,24,02,41,3.80
2013,02,24,02,42,2.10
2013,02,24,02,43,6.40
2013,02,24,02,44,3.50
2013,02,24,02,45,3.60
2013,02,24,02,46,0.20
2013,02,24,02,47,2.00
2013,02,24,02,48,2.00
2013,02,24,02,49,1.40
2013,02,24,02,50,1.60
2013,02,24,02,51,2.20
2013,02,24,02,52,0.00
2013,02,24,02,53,0.20
2013,02,24,02,54,0.60
2013,02,24,02,55,0.00
2013,02,24,02,56,0.00
2013,02,24,02,57,0.00
2013,02,24,02,58,1.00
2013,02,24,02,59,0.00
2013,02,24,03,00,0.00
2013,02,24,03,01,0.00
2013,02,24,03,02,0.00
2013,02,24,03,03,0.00
2013,02,24,03,06,0.00
2013,02,24,03,07,2.50
2013,02,24,03,08,3.80
2013,02,24,03,09,4.30
2013,02,24,03,10,6.00
2013,02,24,03,11,3.90
2013,02,24,03,12,4.90
2013,02,24,03,13,2.80
2013,02,24,03,14,5.50
2013,02,24,03,15,3.00
2013,02,24,03,16,1.80
2013,02,24,03,17,3.50
2013,02,24,03,18,4.20
2013,02,24,03,19,5.80
2013,02,24,03,20,5.50
2013,02,24,03,21,3.10
2013,02,24,03,22,3.60
2013,02,24,03,23,5.70
2013,02,24,03,24,5.30
2013,02,24,03,25,5.70
2013,02,24,03,26,3.10
2013,02,24,03,27,2.20
2013,02,24,03,28,6.00
2013,02,24,03,29,5.20
2013,02,24,03,30,2.70
2013,02,24,03,31,6.40
2013,02,24,03,32,6.90
2013,02,24,03,33,5.90
2013,02,24,03,34,6.20
2013,02,24,03,35,5.40
2013,02,24,03,36,4.60
2013,02,24,03,37,5.10
2013,02,24,03,38,5.40
2013,02,24,03,39,3.40
2013,02,24,03,40,0.00
2013,02,24,03,41,0.00
2013,02,24,03,42,0.00
2013,02,24,03,43,0.10
2013,02,24,03,44,0.00
2013,02,24,03,45,3.10
2013,02,24,03,46,1.60
2013,02,24,03,47,1.10
2013,02,24,03,48,1.00
2013,02,24,03,49,2.40
2013,02,24,03,50,1.10
2013,02,24,03,51,4.30
2013,02,24,03,52,1.90
2013,02,24,03,53,0.00
2013,02,24,03,54,0.30
2013,02,24,03,55,2.50
2013,02,24,03,56,0.40
2013,02,24,03,57,1.80
2013,02,24,03,58,0.50
2013,02,24,03,59,2.80
2013,02,24,04,00,1.90
2013,02,24,04,01,0.50
2013,02,24,04,02,0.80
2013,02,24,04,03,0.00
2013,02,24,04,04,1.50
2013,02,24,04,05,1.00
2013,02,24,04,06,0.80
2013,02,24,04,07,0.00
2013,02,24,04,08,0.00
2013,02,24,04,09,0.00
2013,02,24,04,10,0.00
2013,02,24,04,11,0.00
2013,02,24,04,12,0.00
2013,02,24,04,13,0.00
2013,02,24,04,14,0.00
2013,02,24,04,15,0.00
2013,02,24,04,16,0.00
2013,02,24,04,17,0.00
2013,02,24,04,18,0.00
2013,02,24,04,19,1.40
2013,02,24,04,20,2.70
2013,02,24,04,21,1.90
2013,02,24,04,22,2.30
2013,02,24,04,23,2.90
2013,02,24,04,24,2.90
2013,02,24,04,25,2.60
2013,02,24,04,26,0.90
2013,02,24,04,27,0.60
2013,02,24,04,28,1.50
2013,02,24,04,29,0.00
2013,02,24,04,30,0.10
2013,02,24,04,31,0.00
2013,02,24,04,32,0.00
2013,02,24,04,33,0.00
2013,02,24,04,34,0.00
2013,02,24,04,35,0.00
2013,02,24,04,36,0.60
2013,02,24,04,37,0.00
2013,02,24,04,38,0.00
2013,02,24,04,39,0.00
2013,02,24,04,40,0.00
2013,02,24,04,41,0.00
2013,02,24,04,42,1.80
2013,02,24,04,43,3.20
2013,02,24,04,44,2.90
2013,02,24,04,45,1.90
2013,02,24,04,46,2.00
2013,02,24,04,47,0.60
2013,02,24,04,48,0.50
2013,02,24,04,49,2.80
2013,02,24,04,50,3.80
2013,02,24,04,51,1.90
2013,02,24,04,52,1.10
2013,02,24,04,53,3.40
2013,02,24,04,54,0.20
2013,02,24,04,55,1.00
2013,02,24,04,56,3.10
2013,02,24,04,57,0.20
2013,02,24,04,58,0.00
2013,02,24,04,59,1.10
2013,02,24,05,00,0.80
2013,02,24,05,01,6.00
2013,02,24,05,02,3.50
2013,02,24,05,03,5.50
2013,02,24,05,04,2.40
2013,02,24,05,05,3.90
2013,02,24,05,06,3.20
2013,02,24,05,07,2.00
2013,02,24,05,08,1.00
2013,02,24,05,09,4.10
2013,02,24,05,10,5.00
2013,02,24,05,11,7.60
2013,02,24,05,12,5.60
2013,02,24,05,13,7.60
2013,02,24,05,14,4.20
2013,02,24,05,15,10.90
2013,02,24,05,16,9.50
2013,02,24,05,17,9.80
2013,02,24,05,18,9.80
2013,02,24,05,19,13.10
2013,02,24,05,20,9.60
2013,02,24,05,21,12.50
2013,02,24,05,22,7.80
2013,02,24,05,23,13.90
2013,02,24,05,24,14.70
2013,02,24,05,25,4.70
2013,02,24,05,26,5.90
2013,02,24,05,27,5.70
2013,02,24,05,28,10.50
2013,02,24,05,29,12.10
2013,02,24,05,30,10.70
2013,02,24,05,31,6.80
2013,02,24,05,32,5.60
2013,02,24,05,33,5.60
2013,02,24,05,34,5.20
2013,02,24,05,35,5.10
2013,02,24,05,36,8.50
2013,02,24,05,37,9.30
2013,02,24,05,38,10.00
2013,02,24,05,39,8.40
2013,02,24,05,40,7.80
2013,02,24,05,41,8.50
2013,02,24,05,42,7.40
2013,02,24,05,43,6.40
2013,02,24,05,44,8.70
2013,02,24,05,45,6.10
2013,02,24,05,46,7.20
2013,02,24,05,47,6.60
2013,02,24,05,48,9.00
2013,02,24,05,49,5.80
2013,02,24,05,50,4.80
2013,02,24,05,51,9.70
2013,02,24,05,52,12.30
2013,02,24,05,53,6.80
2013,02,24,05,54,7.40
2013,02,24,05,55,7.50
2013,02,24,05,56,8.30
2013,02,24,05,57,9.30
2013,02,24,05,58,12.20
2013,02,24,05,59,7.80
2013,02,24,06,00,7.40
2013,02,24,06,01,8.80
2013,02,24,06,02,13.00
2013,02,24,06,03,8.50
2013,02,24,06,04,7.90
2013,02,24,06,05,6.50
2013,02,24,06,06,8.70
2013,02,24,06,07,3.70
2013,02,24,06,08,3.70
2013,02,24,06,09,7.00
2013,02,24,06,10,2.30
2013,02,24,06,11,5.70
2013,02,24,06,12,4.40
2013,02,24,06,13,4.50
2013,02,24,06,14,6.70
2013,02,24,06,15,6.00
2013,02,24,06,16,13.40
2013,02,24,06,17,10.10
2013,02,24,06,18,9.90
2013,02,24,06,19,5.10
2013,02,24,06,20,4.30
2013,02,24,06,21,6.40
2013,02,24,06,22,6.40
2013,02,24,06,23,12.00
2013,02,24,06,24,10.60
2013,02,24,06,25,10.40
2013,02,24,06,26,7.10
2013,02,24,06,27,5.60
2013,02,24,06,28,8.10
2013,02,24,06,29,8.10
2013,02,24,06,30,6.00
2013,02,24,06,31,11.30
2013,02,24,06,32,9.00
2013,02,24,06,33,7.70
2013,02,24,06,34,9.70
2013,02,24,06,35,8.30
2013,02,24,06,36,4.10
2013,02,24,06,37,4.50
2013,02,24,06,38,5.50
2013,02,24,06,39,4.40
2013,02,24,06,40,5.50
2013,02,24,06,41,10.00
2013,02,24,06,42,9.20
2013,02,24,06,43,7.20
2013,02,24,06,44,12.00
2013,02,24,06,45,8.70
2013,02,24,06,46,7.60
2013,02,24,06,47,16.60
2013,02,24,06,48,10.10
2013,02,24,06,49,3.10
2013,02,24,06,50,3.60
2013,02,24,06,51,3.60
2013,02,24,06,52,4.50
2013,02,24,06,53,4.30
2013,02,24,06,54,6.20
2013,02,24,06,55,5.90
2013,02,24,06,56,0.40
2013,02,24,06,57,8.40
2013,02,24,06,58,9.20
2013,02,24,06,59,4.80
2013,02,24,07,00,1.10
2013,02,24,07,01,6.40
2013,02,24,07,02,7.20
2013,02,24,07,03,4.00
2013,02,24,07,04,2.30
2013,02,24,07,05,5.90
2013,02,24,07,06,9.80
2013,02,24,07,07,5.30
2013,02,24,07,08,1.70
2013,02,24,07,09,2.90
2013,02,24,07,10,4.40
2013,02,24,07,11,9.30
2013,02,24,07,12,7.80
2013,02,24,07,13,8.80
2013,02,24,07,14,13.00
2013,02,24,07,15,10.30
2013,02,24,07,16,8.80
2013,02,24,07,17,2.60
2013,02,24,07,18,3.00
2013,02,24,07,19,5.40
2013,02,24,07,20,8.10
2013,02,24,07,21,7.30
2013,02,24,07,22,5.20
2013,02,24,07,23,5.70
2013,02,24,07,24,6.00
2013,02,24,07,25,7.80
2013,02,24,07,26,7.00
2013,02,24,07,27,3.20
2013,02,24,07,28,3.60
2013,02,24,07,29,6.80
2013,02,24,07,30,7.40
2013,02,24,07,31,12.60
2013,02,24,07,32,4.90
2013,02,24,07,33,7.20
2013,02,24,07,34,10.10
2013,02,24,07,35,10.00
2013,02,24,07,36,7.10
2013,02,24,07,37,7.70
2013,02,24,07,38,2.30
2013,02,24,07,39,11.00
2013,02,24,07,40,12.50
2013,02,24,07,41,7.70
2013,02,24,07,42,5.70
2013,02,24,07,43,11.80
2013,02,24,07,44,4.30
2013,02,24,07,45,8.20
2013,02,24,07,46,6.40
2013,02,24,07,47,3.50
2013,02,24,07,48,11.40
2013,02,24,07,49,8.40
2013,02,24,07,50,10.10
2013,02,24,07,51,7.90
2013,02,24,07,52,5.70
2013,02,24,07,53,10.30
2013,02,24,07,54,6.20
2013,02,24,07,55,8.00
2013,02,24,07,56,2.90
2013,02,24,07,57,14.90
2013,02,24,07,58,10.00
2013,02,24,07,59,4.90
2013,02,24,08,00,4.20
2013,02,24,08,01,6.00
2013,02,24,08,02,11.30
2013,02,24,08,03,7.60
2013,02,24,08,04,7.50
2013,02,24,08,05,6.70
2013,02,24,08,06,7.20
2013,02,24,08,07,6.80
2013,02,24,08,08,6.50
2013,02,24,08,09,6.10
2013,02,24,08,10,6.40
2013,02,24,08,11,7.50
2013,02,24,08,12,6.80
2013,02,24,08,13,8.70
2013,02,24,08,14,7.50
2013,02,24,08,15,7.50
2013,02,24,08,16,7.10
2013,02,24,08,17,6.60
2013,02,24,08,18,10.70
2013,02,24,08,19,6.40
2013,02,24,08,20,8.00
2013,02,24,08,21,11.50
2013,02,24,08,22,10.40
2013,02,24,08,23,9.60
2013,02,24,08,24,14.60
2013,02,24,08,25,8.50
2013,02,24,08,26,6.80
2013,02,24,08,27,6.40
2013,02,24,08,28,2.20
2013,02,24,08,29,6.20
2013,02,24,08,30,5.10
2013,02,24,08,31,6.90
2013,02,24,08,32,10.20
2013,02,24,08,33,6.50
2013,02,24,08,34,4.90
2013,02,24,08,35,11.00
2013,02,24,08,36,16.10
2013,02,24,08,37,16.70
2013,02,24,08,38,13.90
2013,02,24,08,39,10.20
2013,02,24,08,40,14.70
2013,02,24,08,41,9.50
2013,02,24,08,42,7.20
2013,02,24,08,43,6.50
2013,02,24,08,44,5.80
2013,02,24,08,45,5.30
2013,02,24,08,46,6.00
2013,02,24,08,47,7.30
2013,02,24,08,48,16.90
2013,02,24,08,49,15.40
2013,02,24,08,50,11.30
2013,02,24,08,51,6.90
2013,02,24,08,52,4.30
2013,02,24,08,53,9.90
2013,02,24,08,54,12.60
2013,02,24,08,55,9.80
2013,02,24,08,56,9.00
2013,02,24,08,57,16.90
2013,02,24,08,58,12.40
2013,02,24,08,59,8.90
2013,02,24,09,00,7.30
2013,02,24,09,01,5.90
2013,02,24,09,02,9.70
2013,02,24,09,03,8.80
2013,02,24,09,04,7.10
2013,02,24,09,05,7.60
2013,02,24,09,06,17.20
2013,02,24,09,07,17.10
2013,02,24,09,08,11.20
2013,02,24,09,09,4.70
2013,02,24,09,10,8.10
2013,02,24,09,11,12.10
2013,02,24,09,12,14.90
2013,02,24,09,13,10.20
2013,02,24,09,14,8.30
2013,02,24,09,15,17.60
2013,02,24,09,16,9.00
2013,02,24,09,17,13.80
2013,02,24,09,18,7.20
2013,02,24,09,19,10.60
2013,02,24,09,20,4.80
2013,02,24,09,21,9.80
2013,02,24,09,22,11.30
2013,02,24,09,23,7.20
2013,02,24,09,24,11.00
2013,02,24,09,25,7.60
2013,02,24,09,26,8.00
2013,02,24,09,27,12.20
2013,02,24,09,28,12.50
2013,02,24,09,29,8.50
2013,02,24,09,30,11.70
2013,02,24,09,31,15.50
2013,02,24,09,32,9.80
2013,02,24,09,33,12.40
2013,02,24,09,34,14.10
2013,02,24,09,35,8.10
2013,02,24,09,36,15.70
2013,02,24,09,37,6.90
2013,02,24,09,38,17.10
2013,02,24,09,39,6.70
2013,02,24,09,40,11.20
2013,02,24,09,41,12.80
2013,02,24,09,42,10.90
2013,02,24,09,43,5.00
2013,02,24,09,44,3.80
2013,02,24,09,45,6.80
2013,02,24,09,46,9.10
2013,02,24,09,47,9.70
2013,02,24,09,48,9.70
2013,02,24,09,49,14.40
2013,02,24,09,50,9.80
2013,02,24,09,51,6.80
2013,02,24,09,52,10.00
2013,02,24,09,53,15.70
2013,02,24,09,54,7.40
2013,02,24,09,55,7.80
2013,02,24,09,56,8.40
2013,02,24,09,57,7.50
2013,02,24,09,58,7.20
2013,02,24,09,59,5.60
2013,02,24,10,00,6.00
2013,02,24,10,01,8.50
2013,02,24,10,02,9.90
2013,02,24,10,03,10.80
2013,02,24,10,04,11.60
2013,02,24,10,05,6.50
2013,02,24,10,06,4.30
2013,02,24,10,07,5.90
2013,02,24,10,08,5.10
2013,02,24,10,09,3.20
2013,02,24,10,10,7.20
2013,02,24,10,11,11.10
2013,02,24,10,12,8.50
2013,02,24,10,13,4.50
2013,02,24,10,14,7.20
2013,02,24,10,15,5.20
2013,02,24,10,16,9.80
2013,02,24,10,17,11.30
2013,02,24,10,18,6.40
2013,02,24,10,19,7.50
2013,02,24,10,20,5.60
2013,02,24,10,21,3.00
2013,02,24,10,22,5.00
2013,02,24,10,23,4.90
2013,02,24,10,24,5.60
2013,02,24,10,25,12.90
2013,02,24,10,26,15.60
2013,02,24,10,27,15.80
2013,02,24,10,28,14.10
2013,02,24,10,29,7.30
2013,02,24,10,30,11.30
2013,02,24,10,31,11.90
2013,02,24,10,32,10.70
2013,02,24,10,33,9.60
2013,02,24,10,34,8.00
2013,02,24,10,35,9.20
2013,02,24,10,36,12.30
2013,02,24,10,37,12.10
2013,02,24,10,38,12.50
2013,02,24,10,39,13.00
2013,02,24,10,40,12.60
2013,02,24,10,41,15.80
2013,02,24,10,42,10.00
2013,02,24,10,43,6.10
2013,02,24,10,44,8.00
2013,02,24,10,45,6.40
2013,02,24,10,46,10.40
2013,02,24,10,47,11.70
2013,02,24,10,48,6.40
2013,02,24,10,49,8.50
2013,02,24,10,50,7.30
2013,02,24,10,51,5.70
2013,02,24,10,52,13.70
2013,02,24,10,53,9.90
2013,02,24,10,54,9.40
2013,02,24,10,55,9.90
2013,02,24,10,56,11.30
2013,02,24,10,57,10.10
2013,02,24,10,58,10.30
2013,02,24,10,59,6.80
2013,02,24,11,00,6.00
2013,02,24,11,01,7.40
2013,02,24,11,02,8.00
2013,02,24,11,03,11.20
2013,02,24,11,04,14.00
2013,02,24,11,05,11.10
2013,02,24,11,06,12.10
2013,02,24,11,07,8.70
2013,02,24,11,08,7.70
2013,02,24,11,09,8.70
2013,02,24,11,10,10.30
2013,02,24,11,11,8.10
2013,02,24,11,12,10.50
2013,02,24,11,13,11.10
2013,02,24,11,14,11.50
2013,02,24,11,15,7.20
2013,02,24,11,16,11.50
2013,02,24,11,17,11.80
2013,02,24,11,18,12.50
2013,02,24,11,19,13.30
2013,02,24,11,20,7.20
2013,02,24,11,21,8.60
2013,02,24,11,22,7.60
2013,02,24,11,23,10.60
2013,02,24,11,24,11.70
2013,02,24,11,25,8.10
2013,02,24,11,26,8.70
2013,02,24,11,27,5.30
2013,02,24,11,28,9.70
2013,02,24,11,29,9.30
2013,02,24,11,30,9.10
2013,02,24,11,31,10.10
2013,02,24,11,32,8.40
2013,02,24,11,33,4.10
2013,02,24,11,34,9.10
2013,02,24,11,35,8.90
2013,02,24,11,36,3.70
2013,02,24,11,37,8.30
2013,02,24,11,38,5.40
2013,02,24,11,39,2.70
2013,02,24,11,40,8.80
2013,02,24,11,41,13.10
2013,02,24,11,42,9.00
2013,02,24,11,43,5.80
2013,02,24,11,44,10.40
2013,02,24,11,45,9.10
2013,02,24,11,46,6.50
2013,02,24,11,47,15.10
2013,02,24,11,48,7.10
2013,02,24,11,49,6.90
2013,02,24,11,50,11.50
2013,02,24,11,51,4.40
2013,02,24,11,52,11.20
2013,02,24,11,53,8.30
2013,02,24,11,54,13.40
2013,02,24,11,55,8.00
2013,02,24,11,56,1.50
2013,02,24,11,57,5.20
2013,02,24,11,58,6.70
2013,02,24,11,59,6.70
2013,02,24,12,00,6.90
2013,02,24,12,01,4.90
2013,02,24,12,02,5.70
2013,02,24,12,03,10.30
2013,02,24,12,04,3.30
2013,02,24,12,05,5.00
2013,02,24,12,06,13.00
2013,02,24,12,07,11.80
2013,02,24,12,08,10.50
2013,02,24,12,09,6.50
2013,02,24,12,10,7.50
2013,02,24,12,11,4.30
2013,02,24,12,12,5.90
2013,02,24,12,13,9.70
2013,02,24,12,14,9.50
2013,02,24,12,15,5.80
2013,02,24,12,16,10.00
2013,02,24,12,17,10.90
2013,02,24,12,18,10.90
2013,02,24,12,19,4.40
2013,02,24,12,20,5.40
2013,02,24,12,21,5.50
2013,02,24,12,22,5.00
2013,02,24,12,23,0.70
2013,02,24,12,24,7.60
2013,02,24,12,25,14.20
2013,02,24,12,26,14.40
2013,02,24,12,27,10.50
2013,02,24,12,28,8.20
2013,02,24,12,29,11.80
2013,02,24,12,30,8.50
2013,02,24,12,31,3.50
2013,02,24,12,32,4.80
2013,02,24,12,33,5.50
2013,02,24,12,34,7.70
2013,02,24,12,35,10.00
2013,02,24,12,36,5.00
2013,02,24,12,37,9.10
2013,02,24,12,38,10.90
2013,02,24,12,39,11.50
2013,02,24,12,40,5.20
2013,02,24,12,41,11.30
2013,02,24,12,42,4.70
2013,02,24,12,43,5.60
2013,02,24,12,44,17.90
2013,02,24,12,45,15.20
2013,02,24,12,46,9.40
2013,02,24,12,47,10.70
2013,02,24,12,48,11.30
2013,02,24,12,49,17.00
2013,02,24,12,50,11.10
2013,02,24,12,51,11.30
2013,02,24,12,52,10.80
2013,02,24,12,53,10.20
2013,02,24,12,54,10.40
2013,02,24,12,55,14.50
2013,02,24,12,56,16.20
2013,02,24,12,57,11.60
2013,02,24,12,58,8.80
2013,02,24,12,59,5.90
2013,02,24,13,00,8.20
2013,02,24,13,01,9.60
2013,02,24,13,02,12.30
2013,02,24,13,03,6.60
2013,02,24,13,04,8.90
2013,02,24,13,05,12.70
2013,02,24,13,06,9.40
2013,02,24,13,07,15.40
2013,02,24,13,08,11.00
2013,02,24,13,09,14.60
2013,02,24,13,10,5.10
2013,02,24,13,11,5.80
2013,02,24,13,12,3.40
2013,02,24,13,13,4.70
2013,02,24,13,14,4.30
2013,02,24,13,15,9.50
2013,02,24,13,16,11.60
2013,02,24,13,17,4.60
2013,02,24,13,18,7.80
2013,02,24,13,19,13.80
2013,02,24,13,20,11.90
2013,02,24,13,21,7.90
2013,02,24,13,22,7.40
2013,02,24,13,23,10.50
2013,02,24,13,24,12.10
2013,02,24,13,25,13.60
2013,02,24,13,26,9.30
2013,02,24,13,27,8.50
2013,02,24,13,28,6.80
2013,02,24,13,29,3.10
2013,02,24,13,30,7.30
2013,02,24,13,31,8.00
2013,02,24,13,32,4.10
2013,02,24,13,33,4.70
2013,02,24,13,34,7.20
2013,02,24,13,35,11.30
2013,02,24,13,36,15.00
2013,02,24,13,37,8.80
2013,02,24,13,38,12.30
2013,02,24,13,39,6.00
2013,02,24,13,40,4.90
2013,02,24,13,41,4.40
2013,02,24,13,42,5.30
2013,02,24,13,43,4.40
2013,02,24,13,44,5.40
2013,02,24,13,45,7.60
2013,02,24,13,46,8.10
2013,02,24,13,47,5.50
2013,02,24,13,48,9.50
2013,02,24,13,49,7.70
2013,02,24,13,50,5.00
2013,02,24,13,51,9.50
2013,02,24,13,52,6.00
2013,02,24,13,53,13.00
2013,02,24,13,54,11.50
2013,02,24,13,55,10.80
2013,02,24,13,56,4.20
2013,02,24,13,57,7.20
2013,02,24,13,58,8.20
2013,02,24,13,59,8.40
2013,02,24,14,00,13.00
2013,02,24,14,01,11.00
2013,02,24,14,02,3.90
2013,02,24,14,03,7.50
2013,02,24,14,04,15.80
2013,02,24,14,05,16.30
2013,02,24,14,06,12.20
2013,02,24,14,07,9.50
2013,02,24,14,08,9.20
2013,02,24,14,09,6.30
2013,02,24,14,10,10.50
2013,02,24,14,11,14.40
2013,02,24,14,12,7.30
2013,02,24,14,13,8.30
2013,02,24,14,14,8.00
2013,02,24,14,15,8.00
2013,02,24,14,16,18.40
2013,02,24,14,17,19.20
2013,02,24,14,18,15.50
2013,02,24,14,19,9.50
2013,02,24,14,20,6.40
2013,02,24,14,21,9.00
2013,02,24,14,22,11.70
2013,02,24,14,23,15.70
2013,02,24,14,24,12.50
2013,02,24,14,25,17.20
2013,02,24,14,26,19.40
2013,02,24,14,27,10.30
2013,02,24,14,28,11.80
2013,02,24,14,29,13.40
2013,02,24,14,30,14.30
2013,02,24,14,31,8.20
2013,02,24,14,32,6.40
2013,02,24,14,33,11.70
2013,02,24,14,34,20.00
2013,02,24,14,35,15.70
2013,02,24,14,36,9.30
2013,02,24,14,37,8.50
2013,02,24,14,38,10.90
2013,02,24,14,39,14.20
2013,02,24,14,40,13.90
2013,02,24,14,41,6.80
2013,02,24,14,42,4.90
2013,02,24,14,43,8.50
2013,02,24,14,44,11.80
2013,02,24,14,45,9.40
2013,02,24,14,46,8.10
2013,02,24,14,47,11.70
2013,02,24,14,48,12.20
2013,02,24,14,49,7.30
2013,02,24,14,50,10.70
2013,02,24,14,51,5.80
2013,02,24,14,52,11.40
2013,02,24,14,53,7.70
2013,02,24,14,54,5.90
2013,02,24,14,55,2.60
2013,02,24,14,56,10.20
2013,02,24,14,57,15.70
2013,02,24,14,58,15.00
2013,02,24,14,59,13.70
2013,02,24,15,00,15.60
2013,02,24,15,01,7.20
2013,02,24,15,02,4.70
2013,02,24,15,03,6.30
2013,02,24,15,04,10.00
2013,02,24,15,05,7.30
2013,02,24,15,06,3.90
2013,02,24,15,07,7.60
2013,02,24,15,08,14.00
2013,02,24,15,09,11.60
2013,02,24,15,10,12.30
2013,02,24,15,11,6.80
2013,02,24,15,12,4.30
2013,02,24,15,13,7.60
2013,02,24,15,14,7.20
2013,02,24,15,15,12.20
2013,02,24,15,16,11.80
2013,02,24,15,17,7.70
2013,02,24,15,18,8.20
2013,02,24,15,19,10.00
2013,02,24,15,20,14.60
2013,02,24,15,21,11.10
2013,02,24,15,22,9.60
2013,02,24,15,23,4.40
2013,02,24,15,24,8.00
2013,02,24,15,25,15.20
2013,02,24,15,26,8.60
2013,02,24,15,27,8.40
2013,02,24,15,28,7.30
2013,02,24,15,29,11.90
2013,02,24,15,30,11.60
2013,02,24,15,31,6.40
2013,02,24,15,32,13.00
2013,02,24,15,33,5.50
2013,02,24,15,34,8.30
2013,02,24,15,35,8.60
2013,02,24,15,36,13.70
2013,02,24,15,37,15.10
2013,02,24,15,38,9.30
2013,02,24,15,39,12.90
2013,02,24,15,40,10.80
2013,02,24,15,41,1.60
2013,02,24,15,42,10.80
2013,02,24,15,43,12.10
2013,02,24,15,44,10.00
2013,02,24,15,45,8.30
2013,02,24,15,46,8.00
2013,02,24,15,47,11.20
2013,02,24,15,48,8.10
2013,02,24,15,49,8.70
2013,02,24,15,50,4.40
2013,02,24,15,51,7.40
2013,02,24,15,52,8.90
2013,02,24,15,53,8.90
2013,02,24,15,54,8.60
2013,02,24,15,55,7.40
2013,02,24,15,56,13.00
2013,02,24,15,57,6.90
2013,02,24,15,58,9.60
2013,02,24,15,59,16.70
2013,02,24,16,00,5.10
2013,02,24,16,01,4.90
2013,02,24,16,02,4.70
2013,02,24,16,03,12.30
2013,02,24,16,04,10.90
2013,02,24,16,05,8.20
2013,02,24,16,06,8.60
2013,02,24,16,07,7.10
2013,02,24,16,08,5.60
2013,02,24,16,09,14.40
2013,02,24,16,10,13.00
2013,02,24,16,11,10.30
2013,02,24,16,12,9.40
2013,02,24,16,13,7.00
2013,02,24,16,14,15.10
2013,02,24,16,15,11.30
2013,02,24,16,16,18.70
2013,02,24,16,17,15.10
2013,02,24,16,18,12.60
2013,02,24,16,19,11.50
2013,02,24,16,20,7.40
2013,02,24,16,21,7.70
2013,02,24,16,22,9.20
2013,02,24,16,23,9.30
2013,02,24,16,24,5.60
2013,02,24,16,25,11.20
2013,02,24,16,26,7.80
2013,02,24,16,27,10.10
2013,02,24,16,28,6.40
2013,02,24,16,29,8.70
2013,02,24,16,30,5.80
2013,02,24,16,31,13.70
2013,02,24,16,32,16.10
2013,02,24,16,33,11.20
2013,02,24,16,34,13.10
2013,02,24,16,35,13.40
2013,02,24,16,36,6.10
2013,02,24,16,37,10.90
2013,02,24,16,38,6.80
2013,02,24,16,39,7.40
2013,02,24,16,40,9.50
2013,02,24,16,41,14.20
2013,02,24,16,42,10.80
2013,02,24,16,43,7.90
2013,02,24,16,44,2.90
2013,02,24,16,45,8.10
2013,02,24,16,46,6.00
2013,02,24,16,47,6.20
2013,02,24,16,48,9.30
2013,02,24,16,49,11.90
2013,02,24,16,50,13.00
2013,02,24,16,51,14.40
2013,02,24,16,52,13.40
2013,02,24,16,53,7.60
2013,02,24,16,54,11.90
2013,02,24,16,55,12.60
2013,02,24,16,56,15.80
2013,02,24,16,57,6.50
2013,02,24,16,58,8.90
2013,02,24,16,59,13.90
2013,02,24,17,00,6.60
2013,02,24,17,01,9.10
2013,02,24,17,02,13.70
2013,02,24,17,03,15.80
2013,02,24,17,04,15.30
2013,02,24,17,05,13.70
2013,02,24,17,06,11.20
2013,02,24,17,07,8.50
2013,02,24,17,08,9.90
2013,02,24,17,09,5.40
2013,02,24,17,10,5.90
2013,02,24,17,11,5.60
2013,02,24,17,12,6.50
2013,02,24,17,13,9.10
2013,02,24,17,14,11.80
2013,02,24,17,15,10.70
2013,02,24,17,16,9.60
2013,02,24,17,17,10.90
2013,02,24,17,18,16.70
2013,02,24,17,19,15.90
2013,02,24,17,20,10.30
2013,02,24,17,21,9.40
2013,02,24,17,22,8.00
2013,02,24,17,23,8.50
2013,02,24,17,24,11.50
2013,02,24,17,25,11.40
2013,02,24,17,26,14.30
2013,02,24,17,27,10.70
2013,02,24,17,28,18.90
2013,02,24,17,29,15.00
2013,02,24,17,30,5.10
2013,02,24,17,31,10.00
2013,02,24,17,32,5.10
2013,02,24,17,33,9.10
2013,02,24,17,34,12.80
2013,02,24,17,35,13.50
2013,02,24,17,36,11.10
2013,02,24,17,37,15.10
2013,02,24,17,38,14.60
2013,02,24,17,39,14.60
2013,02,24,17,40,8.30
2013,02,24,17,41,10.90
2013,02,24,17,42,7.70
2013,02,24,17,43,17.90
2013,02,24,17,44,16.60
2013,02,24,17,45,14.30
2013,02,24,17,46,8.60
2013,02,24,17,47,9.70
2013,02,24,17,48,6.40
2013,02,24,17,49,8.30
2013,02,24,17,50,6.40
2013,02,24,17,51,13.60
2013,02,24,17,52,7.90